Wind_Speed
1 2 3 5 4 3 6 9 7 3 3 3 5 6 8 9 8 3 2 3 2 5 12 12 15 17 15 14 15 12 10 14 15 13 13 12 12 11 12 13 12 12 11 10 11 11 12 14 15 15 16 16 18 21 22 21 21 20 19 19 20 21 24 26 26 27 27 26 25 25 25 23 21 22 21 20 19 19 19 20 20 19 20 18 17 19
2 4 5 6 4 1 3 6 4 1 0 3 4 6 7 8 9 5 5 6 4 4 11 10 12 17 14 13 14 12 11 14 15 15 15 15 14 12 13 15 14 12 10 10 10 11 14 15 16 16 15 16 18 21 24 25 25 24 22 22 22 21 23 26 28 27 27 27 26 25 25 23 21 22 22 20 19 20 21 22 23 23 24 22 19 20
3 5 5 4 1 1 1 3 4 4 4 4 4 6 7 5 7 7 6 5 4 5 8 7 10 15 13 12 14 14 13 14 14 16 16 15 15 13 13 13 14 13 12 12 11 11 13 14 16 15 13 15 18 21 24 26 28 27 25 25 24 24 24 24 26 27 27 27 26 24 23 23 21 18 19 20 19 17 18 18 20 20 21 23 22 22
2 2 2 4 2 5 3 4 5 4 5 6 5 6 7 4 4 5 2 0 3 6 8 7 9 13 12 11 15 15 15 15 14 17 17 15 15 15 13 11 11 14 14 13 13 12 12 12 13 13 14 17 20 22 25 26 28 28 28 28 27 27 26 25 25 27 27 25 24 22 21 22 20 16 15 17 16 15 13 13 14 14 14 15 16 19
6 1 2 2 3 5 3 5 7 5 4 7 9 9 9 6 4 5 2 2 4 8 9 8 9 12 10 9 12 11 12 15 13 14 16 15 15 14 12 11 11 13 13 13 15 14 12 11 13 14 15 18 21 23 26 28 29 29 29 29 29 29 28 27 26 27 27 24 21 19 17 16 16 15 15 16 15 14 13 11 11 10 9 8 8 10
7 2 3 3 3 4 5 5 7 6 4 6 11 13 12 10 5 4 3 3 6 7 6 6 7 10 6 7 8 5 6 11 10 11 15 14 13 12 11 12 12 13 13 14 15 15 13 13 13 13 12 15 18 22 26 29 29 29 28 28 29 29 29 29 28 28 28 26 23 22 21 20 21 20 17 18 18 17 15 13 10 8 6 5 5 5
4 2 4 7 6 7 8 7 6 7 6 7 5 9 12 12 7 5 5 4 5 5 0 4 6 10 8 5 8 5 5 11 9 10 13 10 9 10 10 11 11 12 13 13 15 15 14 13 12 11 12 13 15 19 23 25 25 26 25 26 27 28 29 30 29 29 30 28 27 26 24 25 26 24 19 18 18 16 14 12 10 8 6 4 3 2
3 3 4 7 8 8 8 7 7 9 8 5 4 5 8 9 9 9 8 7 6 5 1 3 6 9 12 10 6 9 8 11 10 13 12 8 9 11 11 11 11 11 11 11 12 14 14 14 14 14 12 12 13 16 20 20 21 22 22 23 24 26 28 29 30 32 33 32 31 29 26 26 27 25 23 21 18 16 14 13 13 12 10 8 6 4
3 5 6 7 8 8 6 4 8 12 9 2 5 3 3 4 6 7 7 7 6 6 5 7 7 7 11 9 5 9 10 10 10 14 13 11 12 12 11 11 11 11 11 11 11 12 13 14 16 15 12 12 14 15 17 18 18 19 20 21 21 22 25 28 31 33 34 36 35 33 30 27 25 24 25 23 20 19 18 17 15 14 13 11 8 6
1 3 3 4 6 6 4 3 8 12 8 2 7 4 4 3 2 5 6 6 5 8 9 11 11 8 12 10 4 7 8 8 10 11 12 13 11 9 11 12 11 10 9 10 12 12 13 14 14 12 9 10 13 15 17 18 18 18 19 20 20 21 23 27 30 31 32 35 36 36 34 31 28 27 27 25 22 21 20 19 17 15 13 12 10 8
2 2 1 3 6 3 1 2 7 11 6 5 5 2 1 3 3 3 4 4 6 9 12 17 17 12 10 10 6 5 4 6 9 9 10 11 9 10 12 12 10 10 9 9 10 11 12 11 8 9 9 9 12 15 16 16 18 18 19 20 21 22 23 25 27 27 28 32 33 33 37 37 33 31 29 27 25 23 21 19 18 16 14 13 11 10
6 7 4 4 6 2 0 2 6 7 4 3 3 2 4 5 4 3 4 6 8 10 13 18 18 16 13 9 8 6 3 6 10 9 10 10 11 12 9 8 9 9 9 8 8 9 9 8 7 9 11 10 12 14 15 17 18 19 19 21 21 22 23 23 24 24 25 28 28 27 34 40 38 36 34 31 28 24 22 20 18 17 15 13 12 11
6 11 9 5 5 7 7 7 5 4 4 5 5 4 6 7 5 6 6 7 9 10 11 12 11 12 13 12 16 16 10 11 11 9 11 13 13 11 8 8 8 6 7 7 7 7 8 8 8 10 12 12 13 13 15 17 18 19 19 21 22 22 23 23 23 24 23 24 25 24 28 34 38 38 36 34 31 27 24 22 20 18 16 15 13 12
5 8 10 7 5 9 12 9 6 6 7 10 8 7 9 7 7 10 8 7 9 9 10 10 8 8 8 11 21 26 20 17 17 15 15 14 13 13 10 6 4 4 5 6 6 7 7 8 7 9 11 11 12 13 15 16 18 20 19 20 23 22 22 23 23 23 23 21 23 24 24 26 31 33 33 33 32 30 27 25 22 20 18 17 17 15
8 6 6 7 2 6 14 13 12 9 7 11 10 8 10 8 8 9 7 7 7 6 5 6 7 7 6 5 13 18 12 9 16 19 16 13 13 14 11 6 4 5 5 4 6 6 6 7 7 8 9 8 10 12 13 14 16 19 18 19 23 24 23 24 24 24 23 23 24 25 25 25 26 28 29 30 30 30 29 27 25 23 21 20 19 18
10 8 1 1 3 3 11 11 11 10 9 9 9 9 12 11 10 10 9 8 6 5 4 5 5 6 4 5 5 7 2 3 9 15 14 13 13 12 11 10 10 7 5 4 5 6 7 7 8 9 8 8 8 9 10 11 13 16 17 18 20 22 23 23 24 24 25 25 25 25 26 26 27 28 28 29 29 28 28 27 26 26 24 23 21 20
7 6 3 7 8 3 7 6 6 9 8 5 8 11 8 5 8 11 13 10 7 9 8 7 9 9 7 9 10 12 11 7 10 10 12 11 10 10 10 11 12 7 5 5 5 7 7 7 9 10 10 10 10 10 10 10 10 13 16 17 18 19 21 22 24 24 25 26 26 26 26 26 26 27 27 27 27 26 26 25 25 25 25 24 24 23
3 5 4 8 12 8 3 6 9 11 8 6 7 7 3 2 3 7 10 10 10 12 10 11 17 15 10 10 9 14 20 16 8 6 7 9 8 9 9 11 12 7 4 5 6 6 7 7 9 10 11 11 12 12 11 11 13 15 16 17 18 18 20 22 24 25 26 27 28 28 28 28 27 27 27 27 27 27 27 26 26 25 25 24 24 23
3 6 5 5 11 9 4 4 10 11 11 12 8 2 2 4 4 5 8 9 11 12 9 13 19 16 12 12 10 12 17 16 9 5 5 8 10 11 9 10 10 6 4 4 5 5 5 7 9 11 11 12 13 13 13 14 15 17 18 18 19 19 21 23 25 26 27 29 30 30 31 32 32 32 32 32 31 31 30 29 28 27 25 24 23 21
3 5 4 2 4 5 4 3 7 7 7 8 5 3 5 7 6 6 7 6 9 12 11 13 14 11 10 11 14 18 18 18 15 9 5 8 12 12 7 5 6 5 5 5 5 5 6 7 9 11 12 13 14 13 15 16 17 18 19 21 23 23 24 26 27 29 30 31 33 34 34 35 35 35 35 34 32 31 30 29 27 26 24 23 21 20
2 5 8 3 2 5 6 4 3 2 3 3 4 5 6 5 5 6 7 5 6 9 9 10 11 10 6 3 6 12 12 9 8 8 7 7 10 11 8 6 6 5 5 6 5 6 6 7 8 10 11 12 13 13 14 16 17 18 20 21 24 26 28 28 29 31 33 33 34 35 35 35 34 34 33 32 30 30 29 27 26 25 23 22 21 19
3 5 8 7 6 9 9 4 1 3 4 4 5 6 6 6 5 7 8 6 6 7 7 9 11 7 2 3 4 5 6 6 7 7 7 8 9 10 9 7 7 6 6 6 6 6 6 7 8 9 10 11 12 13 13 14 16 18 19 21 23 25 27 29 31 32 34 34 34 35 35 34 33 32 31 30 30 29 28 27 26 25 24 23 22 20
1 2 6 8 9 10 10 7 7 9 8 6 7 6 7 7 6 6 6 4 5 6 7 9 11 6 1 3 5 6 7 7 7 7 7 7 8 9 10 8 7 7 6 5 5 6 6 7 8 9 10 10 11 12 13 13 14 15 18 20 23 25 27 29 31 32 33 34 33 34 33 33 32 31 31 31 30 29 28 27 26 25 24 23 22 21
1 1 5 7 7 9 9 8 7 5 4 6 7 6 6 6 5 4 5 5 5 5 7 9 9 5 1 2 3 5 7 7 8 9 8 7 8 9 11 9 7 7 6 3 4 3 3 5 7 8 9 10 10 11 12 12 13 14 15 17 20 24 27 29 30 31 32 33 33 33 33 33 32 31 31 31 30 29 28 27 26 25 24 23 22 21
3 3 3 3 6 8 8 8 6 3 1 3 4 4 5 6 7 6 5 6 5 6 9 9 9 6 3 4 3 4 7 7 8 8 8 7 8 9 10 9 7 6 5 2 2 3 3 4 6 7 8 8 9 10 10 11 12 13 13 15 19 23 25 27 28 30 31 32 32 32 32 32 31 31 31 30 29 28 27 26 26 24 24 23 23 22
3 5 5 5 8 8 8 8 6 3 3 4 6 8 9 8 8 8 6 6 6 7 9 9 8 7 9 12 10 7 10 10 10 9 8 7 7 8 8 7 6 5 3 1 1 3 4 5 6 7 7 7 7 8 8 9 11 11 12 14 19 22 23 25 27 29 30 31 31 31 31 30 30 30 29 29 28 27 26 25 25 24 23 23 23 22
1 5 7 8 9 9 10 10 9 9 8 9 12 15 15 12 10 8 7 8 8 7 8 9 8 8 11 13 12 10 12 13 12 12 11 9 8 8 6 5 5 4 3 3 2 2 4 6 7 8 6 5 6 7 7 8 9 9 11 14 17 20 22 24 26 28 29 29 29 29 29 29 29 29 29 28 27 26 25 24 23 23 23 22 21 21
2 7 8 9 11 12 12 12 12 12 11 12 15 19 19 17 13 11 10 9 9 8 7 7 8 9 11 13 14 13 12 11 11 11 12 11 10 9 7 7 6 6 6 5 4 2 3 5 6 7 7 6 6 7 7 9 10 10 12 14 17 19 21 23 25 26 27 27 27 27 27 27 27 27 27 26 26 25 24 24 23 22 22 21 20 20
4 8 8 8 12 13 12 13 12 11 10 12 15 18 19 20 18 14 12 11 10 9 9 9 12 13 14 15 14 10 9 9 9 9 10 11 12 13 12 12 12 12 11 9 7 4 3 4 4 5 6 6 6 7 8 9 11 12 14 15 16 18 20 22 24 25 25 25 25 24 24 25 25 25 25 24 24 23 23 22 22 21 21 20 19 19
4 9 9 9 13 14 13 12 12 12 12 13 16 17 18 19 19 17 15 14 14 14 12 13 16 16 13 10 8 9 8 7 8 10 11 14 15 15 15 15 15 15 15 14 13 10 8 7 6 6 7 8 8 8 8 9 10 12 13 14 16 17 19 22 24 24 23 23 22 22 23 24 23 22 22 21 21 21 20 20 20 19 19 19 18 18
4 9 9 7 10 12 11 12 14 15 14 14 17 18 17 17 18 18 15 13 13 15 15 15 17 14 6 6 8 9 9 9 11 13 13 14 15 15 15 15 15 15 15 15 15 14 14 12 10 9 8 8 9 8 9 9 10 12 13 14 15 16 19 22 24 23 23 22 20 20 21 22 22 21 21 20 20 19 18 18 18 17 17 17 17 17
5 7 7 6 10 11 10 12 15 15 15 16 17 18 18 17 15 14 13 13 13 13 14 15 12 8 6 8 7 9 12 12 13 14 13 13 14 15 15 15 15 15 15 15 15 15 15 14 13 12 12 9 7 8 10 10 11 13 14 14 16 18 20 23 24 24 23 21 19 18 18 19 20 20 19 19 19 18 17 17 16 16 16 15 15 15
7 7 6 7 9 10 9 10 11 11 12 13 12 14 17 17 16 17 17 15 11 7 9 10 4 4 9 9 8 10 12 12 12 13 12 12 13 13 14 14 14 15 14 15 15 15 15 14 14 15 15 14 11 6 10 13 14 15 17 18 19 20 22 23 24 24 22 20 19 18 17 17 17 18 17 17 17 17 16 16 15 15 14 13 13 12
9 9 8 7 8 10 10 8 8 9 11 9 7 9 13 14 17 18 11 4 5 5 4 5 5 8 10 9 9 9 10 11 11 12 12 13 12 12 13 14 14 15 15 15 15 15 15 16 17 17 16 16 15 8 11 15 18 19 19 21 22 22 23 24 23 23 22 20 19 18 16 16 16 16 15 15 15 15 15 15 14 14 13 12 11 10
9 9 8 7 7 9 9 6 9 11 8 6 5 5 7 8 9 7 2 8 10 9 8 7 8 10 11 10 9 7 6 9 11 13 15 15 13 13 14 14 15 16 15 15 15 16 17 19 19 20 19 19 17 10 11 14 17 18 18 20 22 23 23 23 23 22 20 19 17 16 16 15 15 15 14 14 13 13 13 13 13 12 11 11 10 9
10 8 7 6 6 8 7 7 10 7 5 7 6 5 6 6 6 2 3 6 10 10 9 9 9 11 12 12 11 10 8 5 5 11 15 16 15 15 14 13 15 16 15 16 17 18 20 21 20 20 19 18 18 14 12 11 12 14 16 19 21 22 22 23 22 20 18 17 16 15 14 14 13 13 13 13 12 12 12 12 11 11 10 10 10 9
10 8 6 6 7 7 7 9 9 8 8 10 5 5 6 5 6 4 2 2 8 10 10 10 11 12 13 13 13 13 13 9 3 5 13 16 16 15 15 15 16 17 18 20 20 19 20 21 20 20 19 17 19 18 14 12 12 15 18 20 21 22 22 22 21 18 17 16 15 13 13 12 12 12 11 11 11 11 11 10 10 9 9 9 9 9
8 9 7 6 6 7 8 8 7 9 8 3 3 7 7 5 5 5 4 1 5 9 11 10 11 13 13 14 16 16 11 6 5 2 12 16 16 16 16 18 20 20 21 23 23 21 21 21 21 21 19 18 20 20 17 14 15 19 21 21 21 21 22 21 19 16 16 15 13 12 11 10 10 10 10 10 10 10 9 9 9 8 8 8 8 8
4 7 7 7 6 6 7 6 6 7 4 3 6 9 9 7 5 5 4 2 4 10 11 10 10 11 12 13 15 14 7 3 2 5 11 15 16 16 16 17 20 21 21 22 24 23 21 20 21 21 21 22 22 21 18 16 18 21 21 19 20 21 21 19 16 15 14 13 12 11 10 9 9 9 9 9 9 8 8 8 8 8 7 7 7 7
2 1 4 5 6 7 7 7 6 3 1 5 9 11 11 9 5 4 5 2 4 9 10 10 10 10 11 11 11 9 5 2 3 7 12 15 16 16 16 17 19 20 21 22 24 25 21 18 20 22 23 23 23 21 19 18 20 21 18 18 19 20 19 16 14 13 12 11 10 10 9 8 8 7 8 8 7 7 7 7 8 7 7 7 7 7
2 1 2 3 4 6 6 5 4 1 3 5 10 12 12 9 4 4 3 1 4 9 9 9 9 9 10 10 7 5 5 7 8 10 12 14 15 15 17 19 18 18 19 20 23 24 22 19 19 20 20 21 22 22 20 18 19 19 16 18 20 19 16 14 13 12 11 10 10 9 8 8 7 7 7 7 7 7 7 7 7 8 8 8 8 8
1 1 2 2 3 4 3 4 5 1 2 6 12 11 8 5 3 1 2 3 5 9 10 9 8 8 9 9 7 6 8 10 11 11 12 13 13 14 17 20 20 20 20 21 23 24 23 20 19 20 20 21 23 23 20 18 18 17 17 20 20 17 14 13 12 11 11 10 9 9 8 8 7 7 7 7 7 7 7 7 8 8 9 9 9 8
1 2 2 1 2 2 2 3 5 2 2 9 12 6 3 3 1 2 5 4 4 8 10 9 8 8 9 9 8 9 11 11 11 12 12 12 13 14 17 19 20 20 21 22 23 24 23 20 19 19 20 21 23 23 22 20 18 17 19 20 18 14 13 13 12 11 12 11 10 10 9 9 8 7 7 7 7 6 7 7 8 8 9 9 9 9
1 2 2 0 1 2 3 2 2 1 3 8 8 3 3 4 3 3 5 5 5 6 8 8 8 9 10 9 10 11 10 10 11 12 12 12 13 14 16 18 19 20 20 21 22 23 22 20 20 20 19 20 22 23 23 22 19 18 20 19 15 13 13 12 12 12 12 11 11 11 10 10 9 8 8 7 6 6 6 7 7 8 9 9 8 8
1 2 2 1 1 1 2 2 2 2 1 4 5 4 3 3 4 5 6 5 5 6 6 7 9 10 11 11 11 10 9 10 11 11 11 11 12 14 16 17 18 19 19 19 21 22 21 20 20 20 19 20 22 23 24 23 21 20 19 17 15 14 13 12 11 12 12 12 12 11 10 10 9 9 8 8 7 6 7 7 7 8 8 8 8 8
2 3 2 2 1 1 1 1 3 2 2 3 4 4 4 4 4 5 5 5 5 6 6 7 9 10 11 11 10 9 9 10 12 11 10 11 12 13 15 16 17 18 18 19 20 21 20 19 19 20 20 21 22 22 23 24 22 20 18 17 16 15 13 13 12 12 12 12 11 10 9 9 9 9 9 8 7 7 7 7 7 8 8 8 9 9
2 4 2 1 1 3 1 3 2 3 1 3 3 2 4 6 6 5 5 5 6 7 7 8 10 11 11 10 10 10 10 11 11 11 10 10 11 13 14 15 16 17 17 17 18 19 19 18 19 19 19 19 20 20 22 23 22 20 18 17 16 14 12 12 12 11 10 10 10 9 9 9 9 9 9 9 8 8 7 7 8 8 8 8 8 8
2 3 2 1 1 3 1 2 4 6 2 3 2 2 4 7 8 6 6 7 8 9 10 10 10 11 10 10 10 11 11 11 11 10 10 10 11 13 13 14 16 16 16 15 15 16 17 16 16 17 16 16 17 17 17 18 19 19 17 16 15 13 11 11 11 10 10 9 9 9 10 10 10 9 9 9 8 8 8 9 9 8 7 7 8 8
2 2 2 1 2 4 2 2 5 4 3 5 3 3 5 8 9 7 7 9 9 9 10 10 11 10 10 11 11 11 10 10 11 11 10 10 11 12 13 14 15 15 14 14 14 14 14 14 14 15 14 13 14 13 13 13 15 16 16 14 13 12 11 10 10 10 10 10 10 10 9 9 8 9 9 9 8 7 7 8 9 7 4 5 8 9
2 1 1 1 3 3 0 2 5 4 2 3 2 6 9 10 9 7 8 9 9 9 10 10 11 11 11 11 11 10 10 9 11 12 11 11 12 13 14 14 15 14 12 12 12 12 13 13 12 12 11 11 11 11 10 11 13 15 15 14 13 13 12 11 11 11 11 11 11 10 9 7 6 7 8 8 7 7 6 6 7 6 4 7 9 8
1 1 2 3 3 3 3 3 3 4 5 7 7 9 11 10 7 7 9 9 9 10 11 11 12 11 11 11 11 10 10 11 12 12 12 11 12 13 13 14 14 13 11 11 11 12 12 12 11 10 9 9 9 9 8 9 12 14 15 13 12 12 11 11 11 10 10 11 11 10 9 7 6 6 6 5 6 6 5 5 5 3 3 7 9 6
Wind_Direction
287 218 205 234 244 214 202 218 247 334 30 274 277 271 264 269 266 242 224 219 166 269 266 254 259 265 264 266 267 262 253 257 263 262 261 260 259 257 259 262 261 260 264 265 263 266 271 266 262 259 252 252 251 249 247 241 236 232 228 230 229 226 225 224 223 222 220 217 215 217 219 219 220 221 219 218 222 225 226 227 227 226 228 228 228 227
251 241 232 245 266 331 224 229 243 270 114 253 259 266 260 258 261 243 234 235 176 238 269 270 271 270 266 262 264 267 257 253 258 258 255 256 256 253 252 258 262 265 263 262 262 259 261 263 261 258 249 243 241 243 246 245 243 239 234 234 234 231 227 223 222 221 220 219 215 214 215 215 215 218 219 217 217 220 222 226 228 228 230 229 226 225
229 242 266 301 307 95 118 203 221 224 228 245 242 260 265 254 260 253 240 246 217 235 269 286 282 276 271 259 256 258 254 250 248 249 252 253 254 254 251 252 255 260 264 263 265 257 251 253 256 250 239 235 235 238 244 245 245 241 235 235 234 234 233 229 223 219 219 220 216 213 211 209 207 206 209 209 208 209 211 214 219 221 224 224 223 222
261 228 323 346 147 156 145 159 179 202 221 230 225 249 258 236 251 263 242 198 234 239 267 301 297 281 273 254 251 250 245 247 241 241 250 251 252 256 255 255 254 257 263 265 265 263 254 249 249 242 232 233 232 233 237 240 241 240 237 235 233 233 232 229 224 217 217 216 211 210 208 205 202 194 191 193 191 191 190 190 195 198 201 206 211 214
265 190 79 42 152 169 183 169 178 205 231 220 214 233 252 244 236 257 301 357 271 245 250 282 296 279 258 230 246 247 233 243 243 240 248 249 249 256 257 257 256 254 257 260 263 263 257 250 246 238 230 230 228 228 231 234 237 239 238 236 234 233 230 226 222 214 211 209 202 194 185 179 170 160 162 163 159 164 167 161 157 161 168 174 181 190
264 200 153 226 211 190 217 212 196 209 258 244 220 221 241 260 259 254 287 308 287 266 226 232 275 282 254 187 229 248 227 242 236 230 243 245 245 249 253 252 245 242 244 248 254 258 256 252 249 239 224 222 225 227 230 232 234 235 236 233 230 228 225 223 219 210 206 203 195 182 167 161 152 144 149 152 149 149 152 152 145 144 148 155 168 175
254 191 201 240 237 214 230 241 198 184 253 270 216 199 228 253 252 230 241 234 261 292 142 174 252 285 286 232 213 199 237 252 237 232 239 235 238 242 243 246 241 235 235 239 244 250 253 251 248 240 224 218 223 229 230 231 229 228 229 229 226 222 219 218 213 205 200 194 189 183 175 170 162 152 148 150 150 147 145 142 135 137 144 147 171 191
174 186 221 233 230 225 232 236 191 180 236 270 102 155 210 230 232 221 225 225 240 285 339 184 235 275 280 266 196 171 227 256 250 251 248 226 226 237 239 242 245 241 232 233 240 244 247 245 242 240 230 220 222 228 230 230 228 223 222 222 219 215 213 211 204 198 196 190 185 181 174 167 164 157 151 149 147 145 145 143 136 135 138 141 148 148
136 199 220 219 221 226 228 216 178 186 228 268 96 124 183 205 227 210 214 232 242 261 255 221 219 251 269 266 152 166 221 244 246 256 258 244 231 231 241 242 243 247 239 233 237 241 243 241 237 236 233 226 224 225 225 226 226 221 216 213 209 207 205 200 194 190 190 189 185 179 171 161 159 156 151 148 146 142 142 143 142 141 140 140 141 138
98 221 243 238 231 232 233 183 165 193 219 118 111 109 99 128 184 189 215 231 222 238 244 226 210 225 264 264 195 187 221 229 240 249 250 251 244 229 238 243 240 244 244 238 237 239 244 243 237 232 229 224 222 220 218 217 218 215 209 203 197 196 195 191 187 184 184 183 179 176 171 160 154 152 148 146 145 145 144 141 140 142 141 140 140 140
240 248 291 252 243 257 318 135 179 205 199 112 131 151 157 177 154 171 221 215 224 237 233 227 216 214 253 267 242 223 220 228 244 250 242 245 249 241 237 239 242 244 244 240 238 240 244 243 234 226 221 210 207 210 208 206 207 205 200 193 188 187 187 184 184 185 184 179 174 172 171 165 158 157 153 148 148 149 148 144 142 142 141 138 138 140
233 237 234 219 219 207 254 214 202 208 181 149 203 240 265 239 184 193 213 201 232 242 229 228 219 215 236 257 262 255 218 238 252 253 252 246 241 243 241 235 239 243 247 247 242 241 239 231 218 215 212 196 191 194 193 195 196 194 192 186 181 180 182 182 183 185 184 180 176 173 170 167 165 164 162 158 157 157 155 150 146 143 141 137 134 133
224 225 221 212 195 191 220 236 205 182 186 208 217 222 250 256 237 235 225 209 229 235 230 230 216 218 238 250 262 265 250 248 260 257 255 255 251 251 251 241 235 235 247 253 247 237 228 222 211 206 203 191 186 186 183 186 187 185 185 182 178 176 178 180 180 181 181 178 177 174 167 163 163 164 164 163 162 162 161 156 151 146 142 138 133 130
257 223 202 197 197 195 210 228 223 202 196 204 208 214 228 240 246 243 235 229 240 238 233 230 222 232 240 232 244 253 252 248 253 254 248 250 257 261 261 255 247 240 245 250 247 239 226 221 213 204 201 193 188 185 179 179 180 180 179 178 176 173 174 176 176 177 177 174 173 171 165 158 156 158 159 158 158 160 160 156 152 148 144 139 133 128
262 259 182 173 180 188 201 220 238 241 223 210 205 214 223 222 234 239 237 241 253 260 229 204 216 230 230 211 221 238 253 246 247 255 254 250 253 258 264 270 263 246 237 237 241 242 233 220 210 202 198 193 188 183 178 176 176 175 174 175 174 169 167 170 171 171 171 169 167 167 165 159 155 153 152 151 151 153 153 151 149 146 144 141 135 129
246 258 121 118 356 161 199 222 237 242 245 225 202 214 229 230 238 249 262 266 280 291 250 198 228 239 257 310 263 246 289 135 222 253 260 259 253 250 259 263 256 243 222 228 232 233 232 215 203 198 190 184 180 176 175 175 173 171 169 170 169 165 163 164 165 165 164 164 164 164 163 160 156 153 149 147 147 147 147 146 145 143 141 139 135 132
236 239 35 350 324 253 224 259 258 242 252 238 205 218 234 248 252 256 265 269 266 264 250 227 249 253 260 280 264 257 263 219 199 228 249 261 262 253 254 257 258 249 218 222 224 223 221 208 200 195 186 180 175 171 170 168 167 167 165 163 161 159 159 161 162 162 161 160 159 159 159 157 154 151 148 145 144 143 143 142 141 139 136 134 133 131
253 271 312 307 288 274 290 312 275 255 259 262 238 230 245 289 254 248 259 259 250 254 251 241 252 255 255 260 240 240 255 248 205 187 237 268 279 266 256 258 267 275 250 233 230 225 212 200 197 189 183 180 174 169 163 161 163 162 159 156 154 152 152 155 156 156 155 155 153 153 153 152 150 148 144 142 140 138 137 134 133 132 130 129 129 128
9 300 272 239 250 263 9 330 266 250 241 247 256 251 225 250 246 229 239 246 246 253 255 247 252 253 250 257 254 245 252 256 243 198 216 252 268 267 260 261 270 279 270 246 233 230 215 202 196 184 179 174 168 164 158 158 161 159 156 153 149 148 149 150 150 149 149 148 147 146 146 144 142 139 137 136 134 133 130 128 127 127 126 126 126 125
2 301 273 153 222 282 355 293 254 252 250 254 267 253 235 252 266 255 249 251 249 254 260 254 252 251 247 250 255 254 254 260 268 274 269 270 276 279 283 284 278 269 253 240 225 224 215 205 197 184 177 169 163 158 154 155 155 152 154 153 150 149 148 147 146 144 143 142 140 139 138 137 135 134 133 132 130 128 126 126 126 125 125 126 125 124
325 276 267 253 246 290 292 251 219 264 297 302 291 273 257 259 276 272 262 252 252 261 265 261 257 254 257 275 266 262 265 278 302 319 323 323 313 309 323 325 298 278 248 233 219 213 206 199 192 180 170 161 155 152 151 152 151 150 151 150 150 148 146 144 143 141 140 138 137 136 135 135 134 132 131 130 128 127 126 127 127 126 126 125 124 123
289 267 272 271 257 263 267 260 277 297 291 284 280 281 280 278 278 271 257 231 231 252 256 262 267 259 263 20 6 350 359 14 12 354 341 344 332 318 322 319 302 282 251 232 216 203 197 191 185 173 160 154 152 152 153 151 149 149 148 147 147 146 145 144 143 141 140 138 138 137 135 134 133 132 131 129 128 127 127 127 127 126 126 123 121 120
313 266 281 274 263 271 280 284 285 286 285 272 261 262 270 274 266 264 275 270 255 263 266 263 263 254 90 30 24 32 27 26 20 3 352 345 333 325 321 317 304 285 266 243 220 204 193 183 172 163 156 154 153 152 151 149 148 148 147 148 148 146 146 145 143 142 141 139 138 137 136 134 133 132 131 130 128 127 127 126 126 125 124 122 120 118
1 270 276 268 275 282 277 268 263 269 270 253 249 252 262 280 284 273 280 292 289 278 279 275 263 252 58 41 47 41 18 17 18 5 356 346 342 340 327 320 311 291 280 253 225 205 188 172 158 155 156 156 154 150 149 148 145 144 144 145 145 146 147 145 144 142 140 139 137 135 134 133 132 132 130 129 127 127 126 126 125 125 124 122 121 119
289 284 277 281 293 284 265 253 235 193 164 265 277 287 286 297 305 296 269 268 268 240 241 257 262 260 291 292 293 7 4 6 12 6 1 351 346 345 332 325 321 304 293 257 209 169 155 163 162 164 160 153 152 149 147 144 140 139 140 141 143 145 146 145 143 141 138 136 134 133 132 131 131 130 129 127 126 126 126 125 125 125 124 123 122 120
281 280 280 277 280 273 266 265 263 286 323 307 299 295 291 290 290 293 281 261 261 246 238 250 264 277 294 292 296 336 353 353 356 0 6 1 352 349 337 330 327 320 323 318 167 144 149 162 175 179 162 143 142 140 137 135 134 132 132 137 143 144 143 142 140 138 136 133 132 131 130 130 130 128 127 126 125 125 125 125 125 125 124 123 121 120
213 266 264 257 263 267 270 278 296 308 300 292 294 292 289 284 273 271 267 257 273 288 272 271 288 299 298 297 306 332 344 344 346 352 358 4 4 359 351 350 354 356 5 22 57 96 150 162 168 171 152 124 123 125 121 121 120 119 122 132 140 141 140 140 137 135 133 131 130 129 128 128 129 128 128 127 126 126 125 125 124 124 123 122 120 119
263 261 253 247 255 262 268 277 285 287 281 280 285 285 285 285 275 263 258 262 281 296 282 289 317 316 300 298 305 320 335 343 354 0 358 1 6 7 13 23 29 37 40 41 50 79 154 161 157 153 136 110 107 108 101 106 112 114 121 130 136 137 137 136 134 132 131 129 127 127 127 129 129 129 129 128 128 128 127 127 126 124 123 122 121 119
258 264 256 247 254 257 260 270 273 271 272 272 272 273 275 279 277 269 264 266 271 272 274 295 311 304 292 296 310 335 358 4 13 13 7 9 11 12 20 25 26 30 34 33 36 52 99 119 123 129 117 98 95 94 91 100 112 120 125 129 132 132 132 132 131 128 126 125 124 124 126 127 127 127 127 127 128 127 127 127 126 124 123 121 119 117
235 262 255 243 254 257 255 263 268 266 265 264 264 266 267 272 276 275 273 271 266 264 266 278 285 281 283 307 343 15 23 25 27 20 17 18 14 13 20 22 20 20 21 21 20 22 32 48 61 76 85 84 81 80 83 90 100 112 120 125 127 128 129 129 127 123 121 119 117 119 123 124 124 124 124 124 123 123 123 123 122 121 120 117 115 114
232 259 261 256 262 260 252 256 262 264 265 264 263 264 264 266 271 275 278 273 266 265 264 264 266 265 289 8 30 33 27 31 29 20 19 20 15 14 17 16 17 15 13 12 11 10 13 18 27 37 47 67 82 87 86 86 99 111 116 119 122 124 126 127 123 117 114 112 111 115 119 120 121 122 121 121 120 119 119 118 117 116 113 112 111 109
247 262 276 277 267 265 258 256 261 266 270 267 262 261 262 263 268 275 275 268 268 272 271 267 264 269 327 7 37 43 35 37 31 20 16 14 15 18 16 12 13 11 9 7 5 6 6 5 8 11 11 21 57 95 104 101 106 112 114 116 119 121 122 120 115 110 107 105 106 108 110 114 117 118 119 120 120 119 117 115 114 111 108 107 107 106
255 261 270 265 263 269 265 261 270 274 267 262 255 253 255 256 261 265 264 265 275 288 276 272 292 354 349 3 43 47 37 37 33 25 17 9 9 15 16 13 10 9 9 5 2 3 2 358 356 358 358 360 12 68 119 124 121 119 119 121 121 119 115 110 105 103 101 100 101 100 101 104 108 110 113 114 115 115 113 111 110 107 104 102 102 101
249 250 259 258 261 271 270 268 272 262 256 261 264 262 260 259 262 263 263 294 1 14 326 308 13 16 355 7 37 46 52 52 40 29 23 16 10 7 11 12 8 7 9 7 2 0 356 353 352 352 354 359 7 46 119 130 130 128 126 124 121 116 110 104 99 97 95 94 95 95 96 97 97 99 101 103 106 106 105 105 103 100 99 97 96 96
248 245 253 252 252 266 270 263 254 250 258 276 288 305 305 302 295 283 67 56 29 14 1 350 4 6 353 352 1 13 51 65 54 38 24 17 15 9 5 8 7 5 7 7 4 359 354 351 351 350 350 358 10 47 102 116 124 126 121 118 115 109 105 100 95 91 89 87 87 88 90 90 89 89 89 92 95 95 94 94 93 92 93 90 88 88
243 244 246 246 250 261 259 247 248 261 302 293 291 355 4 349 355 9 114 60 25 15 8 350 346 354 351 343 340 336 328 336 50 51 26 12 13 12 5 3 4 3 4 4 2 0 355 350 350 348 346 358 20 44 70 88 106 113 107 105 103 98 96 94 88 83 82 80 78 77 80 82 83 82 80 81 83 83 82 82 81 83 85 83 78 76
231 239 242 240 236 238 246 251 257 275 291 279 283 29 25 355 354 331 248 67 34 15 3 352 345 349 349 342 336 327 316 296 236 60 24 9 6 7 4 3 3 0 1 360 358 1 360 353 352 352 349 5 30 41 52 71 93 99 95 92 90 87 87 84 78 73 72 72 70 69 71 74 76 77 75 73 72 71 69 68 66 66 69 73 70 66
230 230 233 238 227 222 237 249 256 264 269 272 44 31 11 342 323 309 274 135 42 11 360 355 349 348 349 344 335 326 313 263 205 37 11 1 358 2 2 0 1 360 359 357 355 358 2 359 357 356 358 14 32 38 44 64 85 89 84 80 78 78 76 71 64 61 62 63 63 64 65 66 69 70 69 67 63 61 58 56 54 50 50 55 57 55
258 229 231 243 238 230 235 239 250 254 252 33 8 347 344 334 313 295 252 207 27 3 352 351 351 352 353 346 338 333 318 227 188 9 359 351 351 358 358 355 357 358 357 357 355 354 358 1 359 1 8 17 26 33 41 57 75 77 69 65 67 68 64 56 50 51 55 57 60 62 62 63 65 66 66 65 61 57 55 52 50 46 42 44 46 46
9 253 250 250 245 248 249 246 254 251 90 21 339 326 326 319 301 259 232 216 15 350 341 350 351 350 354 346 340 349 1 350 337 343 343 343 345 352 356 353 352 354 354 356 357 354 356 2 5 6 9 11 18 31 41 53 65 64 55 55 58 56 49 44 45 50 55 58 61 62 62 64 65 65 65 64 61 56 53 48 45 42 40 39 40 41
14 330 280 262 265 279 277 263 263 221 80 349 322 320 320 304 257 222 235 258 330 323 334 353 347 347 357 349 340 354 354 333 325 327 336 342 342 348 353 350 347 351 353 355 357 356 356 2 9 10 8 8 18 33 40 48 56 54 49 53 51 44 40 43 48 53 56 58 59 60 60 61 61 61 59 59 61 57 49 44 39 34 33 33 32 33
339 318 274 281 303 302 292 284 282 218 88 332 313 311 319 302 224 221 302 268 282 314 337 347 344 353 356 340 332 334 323 320 326 331 337 342 342 345 350 348 348 350 352 354 358 360 358 360 5 9 8 8 18 29 34 42 49 47 46 48 42 36 42 49 51 56 60 61 61 60 59 57 56 56 56 57 61 57 47 41 35 29 27 25 23 24
343 314 277 284 323 300 246 270 283 243 45 342 322 314 346 353 332 321 318 302 311 336 340 335 341 356 350 332 327 326 319 322 330 333 336 341 343 344 348 349 349 349 350 353 356 358 359 359 1 5 6 7 14 23 29 35 40 41 42 41 34 34 47 53 55 62 66 66 66 63 60 57 53 53 54 53 53 52 45 38 33 28 26 23 22 22
18 318 270 218 9 293 256 270 299 260 4 356 355 36 54 19 13 344 325 325 341 344 338 333 336 344 342 333 324 320 319 325 331 333 336 339 342 343 345 348 348 348 350 352 352 354 358 359 358 359 4 8 13 20 26 30 32 35 38 34 27 32 46 51 56 62 62 63 66 66 63 59 54 53 54 52 50 48 43 38 35 32 29 27 28 28
27 353 309 297 351 301 283 341 60 126 76 29 41 65 54 21 10 353 332 323 331 338 339 335 329 332 336 331 322 318 320 325 329 331 335 338 339 339 342 345 345 346 348 350 350 354 357 358 357 357 1 8 12 16 22 26 28 30 29 24 22 29 39 45 52 58 57 57 59 60 63 63 60 60 61 59 57 54 50 48 48 46 44 43 41 39
23 349 297 270 322 323 247 108 82 97 114 92 83 70 47 23 359 348 338 327 330 335 333 327 324 326 328 327 321 318 321 325 327 328 333 337 336 336 339 341 340 342 347 349 351 352 354 357 359 359 1 6 9 13 18 22 26 25 20 19 24 31 38 47 53 56 59 61 60 60 64 67 67 69 71 70 70 68 64 62 63 62 61 59 54 49
45 354 314 235 308 314 225 133 47 339 270 148 126 79 42 17 356 342 333 327 328 327 323 323 322 319 319 323 321 317 319 324 326 327 332 335 333 334 338 338 336 339 344 348 349 351 354 358 1 1 1 3 6 9 13 18 23 22 19 22 27 31 39 50 54 55 60 65 66 66 68 70 69 70 72 75 79 84 81 79 79 75 69 66 66 58
51 346 323 192 282 298 230 101 358 323 255 144 106 48 19 1 349 338 328 325 324 320 317 318 319 317 318 322 320 316 318 321 323 326 330 329 328 331 333 333 332 334 339 344 347 350 354 359 0 360 0 1 1 4 8 12 18 21 22 25 29 33 41 51 56 58 59 61 63 65 68 70 69 70 73 76 83 91 93 87 82 77 73 80 82 61
317 307 320 1 286 268 226 55 355 328 177 151 113 47 11 348 338 331 326 325 322 317 317 318 317 315 315 317 319 318 316 317 321 324 324 322 323 325 326 327 327 329 334 341 345 347 352 356 357 358 357 357 357 0 1 5 13 20 23 25 29 35 41 50 55 56 57 59 59 59 61 63 65 70 76 78 82 94 102 92 79 69 75 102 93 64
298 276 1 298 273 265 172 27 350 328 240 229 295 357 353 342 335 329 324 324 322 320 321 319 316 315 316 316 318 317 313 315 319 320 318 318 318 319 321 322 323 325 331 338 341 345 350 353 354 354 353 351 353 356 357 360 10 19 22 24 30 36 40 47 52 50 50 53 51 49 49 46 45 58 68 72 77 91 110 110 91 76 98 128 114 80
346 351 321 284 279 307 345 349 328 304 284 285 305 330 333 331 333 328 322 321 319 320 323 321 316 318 320 319 318 316 313 314 316 317 316 314 314 316 319 319 320 323 328 335 340 344 347 348 349 349 348 349 351 351 354 1 11 19 23 26 32 38 42 49 51 45 43 47 47 47 48 41 32 42 49 49 59 76 101 122 119 94 122 149 140 95
Height
808 802 797 790 785 787 791 790 788 793 798 798 798 797 797 794 789 792 798 798 801 800 787 782 781 775 775 773 769 771 773 772 771 771 770 768 768 766 765 764 763 763 761 760 762 762 763 763 764 765 765 766 766 767 768 768 769 770 770 771 771 771 773 775 776 777 778 778 779 781 782 783 784 786 787 788 789 791 792 794 795 797 798 799 800 800
811 799 790 787 787 791 795 794 796 801 805 805 803 802 799 798 794 793 797 796 801 803 786 780 783 775 774 774 770 770 772 771 769 768 767 764 763 762 762 762 760 759 759 758 759 760 761 761 761 763 763 763 764 764 765 765 766 767 768 769 769 770 771 772 773 774 775 776 777 778 779 780 782 783 785 786 787 788 789 791 792 794 795 796 797 798
805 794 788 793 796 800 803 803 804 806 808 807 805 804 799 796 793 792 798 800 802 804 790 786 790 778 772 773 769 769 769 767 766 763 762 761 760 759 759 759 758 758 757 756 756 756 757 758 758 759 760 760 761 761 761 762 762 764 765 765 767 768 768 769 770 772 773 775 776 777 778 779 780 781 782 783 785 786 787 788 790 791 792 794 794 795
791 787 796 804 803 803 806 809 810 809 809 807 804 801 793 790 791 788 798 810 807 802 794 792 794 779 770 771 766 764 763 761 762 760 758 758 757 756 756 757 757 756 756 755 754 754 754 755 755 756 757 757 758 758 758 759 759 760 761 762 763 765 766 767 768 770 772 773 775 776 777 777 778 779 781 781 782 784 786 787 788 789 791 792 792 793
789 792 806 808 803 802 804 808 810 805 801 802 803 798 788 788 795 792 798 807 802 798 796 797 794 770 757 765 760 755 758 757 758 759 757 756 755 755 756 756 757 756 755 754 752 751 751 751 752 752 753 753 754 754 754 755 756 756 757 758 760 761 763 764 765 767 769 771 773 774 776 777 778 779 780 781 782 784 786 787 788 789 790 792 792 792
796 800 807 804 804 804 802 801 803 799 793 792 793 793 790 789 797 802 803 806 802 793 789 793 790 760 743 757 758 752 757 755 755 758 754 753 753 754 754 753 754 754 753 752 750 749 748 747 748 749 749 750 750 751 751 751 752 753 754 755 757 758 759 761 762 764 766 768 770 772 773 775 776 778 780 780 781 783 784 786 787 788 791 792 792 792
799 803 806 802 802 804 802 798 798 800 794 785 784 789 794 794 799 806 805 806 802 789 786 793 790 765 744 747 751 752 755 750 749 752 749 750 752 750 750 748 748 749 749 749 748 746 746 745 745 746 746 747 748 748 749 749 749 750 751 752 754 755 756 758 759 761 763 765 768 769 771 772 773 775 778 780 781 782 784 785 787 787 790 792 792 793
802 807 808 805 803 801 799 796 795 799 793 785 790 794 794 795 800 804 805 804 796 788 792 795 791 783 760 741 742 748 751 749 748 747 743 746 749 746 745 745 743 744 745 746 745 744 744 743 743 743 744 745 746 746 747 748 748 748 749 750 752 753 754 756 757 758 760 761 764 766 768 770 771 772 775 778 781 782 784 785 786 787 789 791 792 793
803 803 802 803 801 797 792 789 793 797 791 789 799 800 795 797 798 800 804 803 796 796 800 791 789 794 768 741 744 748 747 751 749 744 741 740 741 742 742 742 741 740 741 741 742 741 740 740 740 740 741 742 743 744 745 746 747 747 747 748 750 752 753 754 755 757 758 758 760 762 765 768 771 772 774 777 780 782 784 784 786 788 788 790 791 792
804 800 801 802 797 791 788 790 795 795 791 795 803 802 801 803 803 803 804 801 802 808 805 788 784 790 764 735 742 747 745 747 743 738 737 734 734 738 737 737 737 737 738 738 738 738 738 737 738 739 740 741 741 742 744 745 746 747 747 747 748 750 751 753 754 756 757 757 757 758 760 763 768 771 773 775 779 782 784 784 786 788 788 789 790 792
802 803 806 804 797 791 791 795 797 794 794 799 802 801 802 803 806 812 807 801 809 811 800 783 776 782 767 737 730 736 736 735 734 732 731 731 732 733 732 732 734 734 734 735 735 735 736 736 737 738 738 739 740 741 742 743 744 745 746 746 746 748 750 752 753 755 756 757 756 756 756 756 762 768 770 773 777 780 783 784 785 787 788 789 790 792
804 807 802 799 797 795 796 797 798 797 798 801 802 800 801 800 801 811 810 808 815 802 781 773 772 779 774 745 726 726 728 727 728 729 728 728 728 727 728 730 732 733 732 732 734 734 735 735 736 737 737 738 738 739 740 741 743 744 745 746 746 746 748 750 752 754 756 756 757 758 756 753 755 760 763 768 773 777 779 781 784 785 787 788 789 790
797 796 794 795 795 795 797 795 797 803 802 801 802 803 806 803 799 804 802 800 801 783 764 764 771 778 771 749 733 728 729 727 726 727 726 725 724 724 726 727 728 731 732 732 733 733 733 734 734 735 736 736 737 738 739 740 741 743 744 745 745 745 746 748 750 752 755 756 756 758 759 755 755 757 759 762 766 771 775 778 780 783 785 786 788 789
790 784 787 794 793 791 793 791 792 797 799 799 798 799 803 803 805 806 792 783 779 766 758 761 770 774 760 743 735 727 725 727 724 723 723 723 724 724 724 726 729 732 733 733 732 732 732 732 733 733 734 735 736 737 737 738 740 741 743 744 744 745 746 747 749 751 753 755 756 759 760 759 758 759 760 761 763 767 771 774 776 780 782 784 786 787
797 787 785 790 789 786 787 785 781 782 787 790 786 789 792 789 793 792 777 772 768 757 759 768 773 766 743 727 724 720 722 727 724 720 720 722 724 724 724 727 730 731 732 733 732 731 731 731 732 733 734 735 736 737 738 738 739 740 742 743 743 744 745 746 748 750 752 754 756 759 761 762 761 761 762 763 764 767 769 771 773 776 780 782 784 786
805 793 788 792 788 786 787 782 778 782 785 781 780 787 786 775 774 772 763 763 767 766 767 766 759 742 725 719 720 722 726 729 727 722 720 723 723 723 725 725 726 727 729 732 732 731 730 731 731 732 733 735 736 737 738 739 740 740 741 743 744 744 745 746 747 749 751 753 756 758 760 761 762 762 762 764 765 767 769 770 772 775 777 780 782 784
808 794 792 799 792 786 788 783 782 787 784 778 783 786 778 770 773 776 771 765 773 781 769 753 745 734 727 726 720 719 722 722 726 726 721 722 722 724 725 722 721 722 726 729 730 729 729 730 731 731 732 734 735 737 738 739 740 741 742 743 744 745 746 747 748 749 751 753 755 758 759 761 762 762 763 764 766 767 769 771 773 775 777 779 781 783
812 805 797 800 797 788 788 790 786 785 785 785 787 783 778 779 781 785 785 775 775 779 761 744 742 738 735 730 716 713 716 714 720 724 722 723 723 724 725 723 721 722 725 728 728 728 728 729 730 731 732 733 734 736 738 739 740 741 742 743 744 746 747 748 749 750 752 753 755 757 759 761 762 763 764 765 767 768 769 772 773 776 778 780 782 783
820 819 800 795 797 789 789 795 790 781 782 784 784 783 786 790 788 786 787 783 778 774 760 746 741 736 734 727 716 715 715 711 714 718 720 722 720 719 720 721 723 724 727 729 729 729 729 729 730 730 732 733 734 736 737 739 741 742 743 744 745 746 747 749 750 751 753 754 755 757 758 760 761 762 764 765 767 769 770 772 774 776 779 781 782 784
825 826 809 800 800 795 795 798 796 789 784 782 783 786 787 789 788 781 776 776 774 769 759 749 742 733 725 720 717 716 713 710 712 715 718 719 716 715 717 719 723 725 727 729 729 730 730 729 730 730 732 733 734 736 738 739 741 742 744 745 745 747 748 749 750 752 753 754 756 757 758 760 762 763 765 766 767 768 770 772 775 777 779 781 782 784
829 827 815 805 802 802 799 796 799 802 799 795 793 794 791 788 788 784 778 776 776 774 764 755 746 728 717 721 721 717 716 719 724 727 727 727 724 722 723 725 726 726 727 728 728 729 730 730 731 732 733 734 735 737 738 739 741 742 744 745 746 748 748 750 752 752 754 755 757 758 759 761 762 764 765 766 767 768 771 773 775 777 779 781 782 784
830 827 819 811 807 804 798 796 802 804 804 804 803 802 799 795 795 794 786 774 772 774 766 760 754 733 726 736 733 728 732 734 737 739 737 736 735 732 730 730 729 728 727 727 727 728 729 730 732 733 734 735 736 738 739 740 741 742 744 746 747 749 750 751 752 753 754 756 757 758 760 761 762 764 765 766 768 770 772 774 776 778 779 781 783 784
833 834 829 820 811 806 801 800 802 801 801 804 805 801 799 799 800 802 796 780 776 777 765 761 760 742 736 745 741 739 742 739 739 742 741 741 738 735 734 733 731 730 728 728 729 729 729 730 732 734 735 737 737 739 740 741 742 743 744 745 747 749 751 752 753 754 755 756 758 759 760 761 763 764 766 767 769 771 773 775 777 778 780 781 783 784
837 839 837 828 815 807 804 800 800 803 805 805 802 799 802 804 802 807 807 798 796 791 775 770 767 746 739 745 743 741 741 738 738 740 741 743 740 737 737 735 734 733 731 731 731 731 732 732 733 735 736 738 739 740 741 742 743 744 745 747 748 749 751 753 754 755 756 757 758 760 761 762 764 766 767 769 771 773 775 776 778 780 781 782 784 785
841 837 839 840 827 813 808 804 802 806 807 807 805 804 809 809 808 810 808 804 805 795 780 781 774 750 739 741 739 740 740 738 740 741 742 744 742 742 741 738 738 737 734 734 733 733 735 735 736 737 738 740 741 742 743 744 745 746 747 748 749 750 752 754 755 756 757 758 759 761 763 764 766 768 769 771 772 774 776 778 779 781 782 783 785 786
844 838 837 842 833 820 816 813 809 810 812 814 812 811 812 810 811 812 808 805 802 786 774 777 773 756 748 744 740 741 741 741 742 743 745 746 746 747 745 743 742 740 738 737 735 735 736 736 738 740 741 742 743 744 745 746 747 748 749 751 751 753 754 755 756 757 758 760 761 763 765 766 768 769 771 772 774 776 778 779 781 782 783 785 786 786
845 840 836 839 836 828 824 819 815 817 821 821 817 813 810 808 809 809 809 807 799 789 784 778 771 768 763 754 749 747 746 747 747 747 749 749 749 749 748 747 745 743 741 740 739 738 738 738 740 742 744 745 746 747 748 748 750 751 752 753 754 755 755 756 758 759 760 762 763 765 767 768 770 771 772 774 775 777 779 780 782 783 784 785 786 787
844 842 836 838 838 832 828 825 823 824 827 827 822 816 809 806 805 807 809 805 797 800 798 782 776 782 774 759 754 753 752 754 756 758 758 756 754 752 750 749 747 745 743 742 742 743 742 743 743 743 745 747 748 750 750 750 752 753 754 755 756 757 757 758 760 761 762 764 765 767 768 770 771 772 773 775 776 778 780 781 783 784 785 786 787 788
842 840 835 836 837 832 828 828 826 827 828 825 822 818 812 806 804 806 808 803 798 804 800 786 784 788 776 763 763 764 764 766 767 769 767 762 760 757 754 753 752 749 748 747 747 747 746 746 747 746 748 750 751 752 753 753 755 755 757 757 758 759 760 761 762 763 765 766 767 769 770 771 773 774 776 777 778 780 781 782 784 785 786 787 788 789
839 837 832 834 835 831 829 827 826 827 827 824 821 817 812 807 804 804 804 800 798 799 794 789 790 785 774 772 777 779 777 776 776 776 773 770 769 767 764 763 761 759 758 757 756 754 752 750 750 751 751 752 753 755 756 757 757 758 760 760 761 762 762 763 764 765 767 768 770 771 772 773 775 776 778 779 781 782 783 784 786 786 787 788 789 790
838 834 828 832 834 829 827 826 824 823 822 822 818 812 809 809 805 803 802 799 797 794 790 789 786 778 774 779 786 788 785 784 786 784 782 781 780 778 777 775 772 771 769 768 766 763 761 758 756 756 755 755 756 757 758 760 760 761 763 764 764 765 765 766 766 767 768 769 772 773 774 775 776 778 780 781 782 784 785 786 787 788 789 790 790 791
838 833 832 837 834 827 827 826 823 823 823 822 818 812 810 809 806 804 800 795 794 792 788 784 781 780 782 785 788 792 793 793 796 795 793 792 789 788 788 786 784 781 778 777 775 771 769 767 764 763 761 760 758 758 760 762 763 764 766 767 768 768 768 768 768 768 769 771 773 775 776 777 778 779 781 782 784 785 786 788 789 789 790 791 791 792
837 837 839 839 831 826 828 827 827 827 822 816 814 810 806 805 804 800 794 790 794 796 790 785 788 796 799 794 793 800 803 803 805 805 804 802 798 796 796 795 792 789 786 784 782 779 776 774 772 769 767 764 762 761 762 763 765 767 768 770 771 771 771 771 770 771 772 773 775 777 778 779 780 781 782 783 785 786 787 788 789 790 791 792 793 793
836 839 839 837 832 827 827 832 832 823 810 802 802 801 799 798 796 791 794 803 810 811 806 799 802 811 812 806 804 806 808 810 812 814 812 810 807 804 801 800 798 794 791 789 787 786 783 780 777 774 771 768 766 765 765 765 768 770 771 772 772 772 772 772 772 773 774 775 777 778 779 781 781 782 783 784 785 786 787 788 789 790 792 793 794 795
837 839 837 836 834 827 829 833 819 803 801 802 800 803 804 802 798 797 810 826 830 826 824 819 816 821 823 820 817 814 812 814 816 817 818 815 813 811 808 806 803 799 796 793 792 791 788 785 782 778 775 772 769 768 769 769 771 772 773 773 772 772 772 772 772 774 775 777 778 779 781 781 782 783 784 785 786 786 787 788 789 791 792 793 794 795
835 836 834 835 832 825 825 821 803 797 807 806 801 812 819 814 811 809 813 831 841 838 836 833 829 830 831 829 827 823 817 815 815 819 823 821 818 818 815 811 809 805 802 799 798 796 793 791 787 783 780 776 773 772 772 772 774 774 774 773 772 772 772 772 773 775 776 778 779 780 781 782 783 784 785 785 786 787 788 789 790 791 792 793 795 796
831 832 832 830 827 823 819 814 808 806 808 805 809 828 836 833 834 828 816 827 849 850 843 841 838 836 837 836 832 828 823 815 811 816 824 825 822 821 819 816 814 811 808 805 803 801 798 795 791 787 784 780 777 775 775 775 775 774 773 773 773 772 773 773 775 777 778 779 781 781 782 783 783 784 785 786 787 787 788 789 790 792 792 794 795 796
826 827 827 823 820 821 815 810 807 799 797 809 825 841 850 846 849 847 828 826 849 858 851 849 846 841 842 841 835 831 821 807 805 817 827 827 824 822 820 819 817 815 813 810 806 803 801 798 795 791 787 783 780 779 778 777 776 775 774 774 774 774 775 776 778 780 780 781 782 783 783 784 784 785 785 786 787 788 789 790 791 792 793 794 795 796
823 822 825 823 818 818 812 804 799 792 800 824 839 848 852 848 851 851 823 813 846 866 858 853 852 848 848 846 841 835 818 801 806 825 833 830 827 826 823 822 821 819 817 814 810 807 804 801 798 794 790 787 784 782 781 779 777 776 776 776 777 777 777 779 781 782 783 783 784 784 785 785 786 786 787 788 789 790 791 792 793 794 795 795 796 797
826 823 824 821 815 814 810 803 800 802 818 842 851 851 850 851 854 836 796 800 850 871 860 857 857 852 854 852 847 842 830 820 825 835 836 834 832 830 828 826 824 822 819 817 814 810 807 804 801 797 793 790 787 785 783 781 779 778 779 780 780 780 781 783 784 785 785 786 786 786 787 787 788 788 789 790 791 792 792 794 794 795 796 796 797 798
833 832 827 820 815 813 808 801 800 812 836 854 855 854 854 849 837 810 794 826 867 869 860 863 860 856 859 857 850 848 845 844 845 842 839 838 835 832 831 830 828 825 823 820 817 813 810 806 804 801 799 796 792 788 786 784 783 783 783 783 783 784 785 786 787 788 788 788 789 789 789 789 789 790 791 791 792 793 793 794 795 795 796 796 797 798
831 831 826 821 818 817 818 811 797 808 847 868 859 856 856 835 814 817 839 867 875 864 862 865 861 860 863 860 856 855 852 851 849 845 842 840 836 835 834 831 828 826 824 821 818 816 812 809 806 805 802 799 795 792 790 788 787 786 786 785 786 787 789 789 789 790 790 790 790 790 790 791 791 791 792 792 793 793 794 794 795 795 795 796 796 797
838 831 821 824 829 823 819 810 791 798 846 872 857 850 853 840 836 856 873 872 868 867 867 864 862 865 865 861 860 858 854 853 850 847 845 842 839 838 835 833 832 829 825 823 820 817 815 812 809 807 804 801 798 794 792 790 789 789 788 788 790 791 791 791 791 791 791 791 791 791 791 792 792 792 792 792 793 793 793 794 794 795 795 796 796 797
847 838 823 828 838 826 809 807 814 832 862 873 860 855 863 865 870 877 874 867 869 872 868 865 865 867 866 864 862 858 856 854 851 849 847 843 841 840 837 836 835 831 829 826 822 820 817 814 811 809 806 804 801 797 795 793 792 792 791 792 794 793 792 792 792 792 793 792 792 792 792 792 792 792 793 792 793 793 793 794 795 795 796 797 798 799
855 860 851 844 848 845 834 837 854 867 873 874 871 871 874 877 878 878 874 872 872 871 871 870 868 867 868 866 862 859 857 855 853 852 849 846 844 842 839 839 838 834 832 829 825 822 820 816 814 811 808 805 803 800 798 797 795 795 795 795 796 794 793 794 793 793 793 793 792 792 792 792 793 793 793 794 794 794 795 795 796 797 798 799 800 801
872 879 873 861 857 859 858 863 870 871 871 875 877 878 879 879 879 879 877 875 874 874 876 873 869 870 870 867 863 860 857 856 854 852 849 848 847 844 842 841 840 837 835 831 827 825 822 818 816 813 809 807 805 802 801 800 798 798 798 798 797 795 795 794 794 794 794 794 794 795 794 795 795 794 795 795 795 795 796 797 798 799 800 801 802 803
879 879 873 866 859 850 848 861 872 870 871 875 876 877 880 880 880 881 878 877 877 877 876 875 874 873 870 867 866 862 858 858 855 851 850 850 847 846 845 843 841 839 836 833 830 827 824 821 818 816 814 811 808 807 805 803 801 801 800 799 798 797 797 796 796 796 796 796 797 797 797 797 797 796 796 797 796 797 798 798 799 800 801 802 804 805
874 877 869 865 863 854 851 866 876 873 872 877 876 877 880 879 880 882 880 878 879 877 876 876 875 872 870 869 867 863 861 860 857 853 852 851 848 847 847 844 843 841 838 835 833 830 827 825 822 820 819 816 814 812 811 808 807 806 804 803 802 800 800 799 799 799 799 799 798 798 798 798 798 798 799 799 799 799 799 800 801 802 803 803 804 805
878 874 869 868 865 859 859 870 875 869 868 875 877 878 881 881 880 880 880 879 879 877 876 875 873 872 871 868 866 865 862 860 859 857 855 852 851 850 848 846 845 842 839 837 835 832 830 828 826 824 822 821 819 818 816 815 813 811 809 807 805 803 802 801 801 800 800 799 799 799 799 799 799 800 800 800 800 800 801 801 802 803 804 804 804 806
877 869 871 868 854 847 857 872 876 867 863 869 875 879 881 882 881 880 879 878 877 876 875 874 871 871 869 867 866 865 862 860 860 858 855 853 852 850 848 847 845 842 841 839 836 834 832 830 828 827 826 824 824 822 820 818 816 813 811 809 806 805 803 801 801 801 800 800 800 800 800 800 800 801 801 801 801 801 801 802 802 803 804 804 805 806
879 876 877 868 854 855 870 882 884 877 872 874 879 881 882 883 882 880 878 877 876 876 875 873 870 868 867 866 866 864 862 861 860 857 856 854 852 850 849 847 845 843 841 839 837 835 834 832 831 830 829 827 826 824 822 820 817 815 813 810 808 806 804 803 803 803 802 802 802 801 801 802 802 802 802 802 802 802 802 802 802 803 804 804 805 806